Content
SEND FEEDBACK

Daily
Averages
Monthly
Summary
United States of America

CAMP QUEZON, GUAM


Home > North America > United States > Guam
Elevation: 82 meters     Latitude: 13 28N     Longitude: 144 48E

WEATHER
 
SELECT A DAY
Number of Records: 213,760;   Date Range: 1/1/95 - 10/19/14
 
SHARE

PRINT THIS DATA

[ ← Previous Day ]
WEATHER ALMANAC - 9 JUNE, 2014
[ Next Day → ]
[ °F ]   °C
Weather ElementAverageHighLow
Temperature29.3 °C31.1 °C (10:54 am)27.8 °C (1:54 am)
Dewpoint25.3 °C26.1 °C (7:54 am)24.4 °C (4:54 pm)
Humidity78.8 %88 % (6:54 am)69 % (4:54 pm)
Barometer1008.5 hPa1009.8 hPa (8:31 am)1006.8 hPa (3:54 pm)
Wind Speed15.3 km/h25.9 km/h (9:54 am)
Wind Gust35.2 km/h (9:54 am)
Weather ElementAverage
Visibility15.9 km
Wind DirectionE (85.7 °)

Weather ElementTotal
Precipitation1.52 mm
Cooling Degree Days11.1 (Base 18.3)
Growing Degree Days19.4 (Base 10)
Averaged from 28 records on 9 June, 2014
WEATHER CONDITIONS BREAKOUT
WIND DIRECTION BREAKOUT
WEATHER BY HOUR - 9 JUNE, 2014
[ °F ]   °C
Local TimeTemperatureDewpointHumidityBarometerVisibilityWind DirectionWind SpeedGust SpeedPrecipitationEventsConditions
1:54 AM27.8 °C25 °C85 %1008.5 hPa16.1 kmNE (50°)9.3 km/hClear
2:54 AM27.8 °C25 °C85 %1007.5 hPa16.1 kmENE (60°)9.3 km/hClear
3:54 AM27.8 °C25 °C85 %1007.5 hPa16.1 kmNE (40°)5.6 km/hClear
4:54 AM27.8 °C25 °C85 %1007.5 hPa16.1 kmENE (70°)13 km/hPartly Cloudy
5:54 AM27.8 °C25 °C85 %1008.1 hPa16.1 kmEast (80°)11.1 km/hClear
6:54 AM27.8 °C25.6 °C88 %1008.5 hPa16.1 kmEast (90°)13 km/h0.51 mmClear
7:54 AM28.9 °C26.1 °C85 %1008.5 hPa16.1 kmEast (90°)16.7 km/h0 mmScattered Clouds
8:31 AM29 °C26 °C84 %1009.8 hPa16.1 kmEast (100°)24.1 km/h33.3 km/hMostly Cloudy
8:54 AM29.4 °C25.6 °C80 %1009.1 hPa16.1 kmEast (100°)22.2 km/hScattered Clouds
9:54 AM30.6 °C25.6 °C74 %1008.8 hPa16.1 kmEast (80°)25.9 km/h35.2 km/hScattered Clouds
10:54 AM31.1 °C25.6 °C72 %1008.5 hPa16.1 kmESE (110°)18.5 km/h35.2 km/hScattered Clouds
11:54 AM31.1 °C25 °C70 %1008.1 hPa16.1 kmEast (90°)20.4 km/h33.3 km/hScattered Clouds
12:47 PM31 °C25 °C70 %1008.5 hPa16.1 kmEast (100°)22.2 km/hMostly Cloudy
12:54 PM30 °C25 °C74 %1007.8 hPa16.1 kmESE (110°)20.4 km/hMostly Cloudy
1:28 PM31 °C25 °C70 %1008.5 hPa16.1 kmSE (130°)14.8 km/hScattered Clouds
1:54 PM30.6 °C25 °C72 %1007.5 hPa16.1 kmEast (90°)16.7 km/hScattered Clouds
2:17 PM31 °C26 °C75 %1008.1 hPa12.9 kmEast (100°)20.4 km/h0 mmRainLight Rain
2:33 PM29 °C26 °C84 %1008.1 hPa16.1 kmEast (90°)18.5 km/h0.51 mmRainLight Rain
2:54 PM29.4 °C26.1 °C82 %1007.5 hPa16.1 kmEast (80°)16.7 km/h0.51 mmMostly Cloudy
3:54 PM30.6 °C25 °C72 %1006.8 hPa16.1 kmESE (110°)20.4 km/hScattered Clouds
4:54 PM30.6 °C24.4 °C69 %1007.1 hPa16.1 kmEast (90°)24.1 km/h33.3 km/hScattered Clouds
5:54 PM30 °C25 °C74 %1007.5 hPa16.1 kmESE (110°)13 km/h25.9 km/hPartly Cloudy
6:54 PM28.9 °C25 °C79 %1008.1 hPa16.1 kmESE (110°)14.8 km/hPartly Cloudy
7:54 PM28.9 °C24.4 °C76 %1008.8 hPa16.1 kmEast (100°)13 km/hPartly Cloudy
8:54 PM28.9 °C25 °C79 %1009.5 hPa16.1 kmESE (110°)13 km/hScattered Clouds
9:54 PM28.3 °C25.6 °C85 %1009.8 hPa16.1 kmESE (110°)9.3 km/hClear
10:54 PM28.3 °C25 °C82 %1009.8 hPa16.1 kmCalmPartly Cloudy
11:54 PM28.3 °C25.6 °C85 %1009.5 hPa16.1 kmCalmScattered Clouds
Hourly data recorded from PGUM, located 0 kilometers away from Camp Quezon, Guam







STORIES FROM OUR PARTNERS